Content
SEND FEEDBACK

Daily
Averages
Monthly
Summary
United States of America

EL PASO, TEXAS


Home > North America > United States > Texas
Elevation: 3918 feet     Latitude: 31 48N     Longitude: 106 24W

WEATHER
 
SELECT A DAY
Number of Records: 170,123;   Date Range: 1/1/95 - 4/16/14
 
SHARE

PRINT THIS DATA

[ ← Previous Day ]
WEATHER ALMANAC - APRIL 26, 2013
[ Next Day → ]
[ °C ]   °F
Weather ElementAverageHighLow
Temperature72.4 °F82.9 °F (3:51 pm)62.1 °F (5:51 am)
Dewpoint10.4 °F19 °F (2:51 am)1.9 °F (6:51 pm)
Humidity10.1 %18 % (4:51 am)5 % (4:51 pm)
Barometer29.91 in29.97 in (9:51 am)29.83 in (1:51 am)
Wind Speed8.2 mph15 mph (8:51 am)
Wind Gust25.3 mph (1:51 pm)
Weather ElementAverage
Visibility10 mi
Wind DirectionWSW (244.8 °)

Weather ElementTotal
Precipitation---
Cooling Degree Days7.5 (Base 65)
Growing Degree Days22.5 (Base 50)
Averaged from 23 records on April 26, 2013
WEATHER CONDITIONS BREAKOUT
WIND DIRECTION BREAKOUT
WEATHER BY HOUR - APRIL 26, 2013
[ °C ]   °F
Local TimeTemperatureDewpointHumidityBarometerVisibilityWind DirectionWind SpeedGust SpeedPrecipitationEventsConditions
1:51 AM69.1 °F17.1 °F14 %29.83 in10.0 miWNW (300°)13.8 mph19.6 mphPartly Cloudy
2:51 AM68.0 °F19.0 °F15 %29.86 in10.0 miNW (310°)13.8 mph21.9 mphPartly Cloudy
3:51 AM64.9 °F18.0 °F16 %29.87 in10.0 miNorth (350°)5.8 mphClear
4:51 AM63.0 °F18.0 °F18 %29.90 in10.0 miNNW (340°)6.9 mphClear
5:51 AM62.1 °F18.0 °F18 %29.91 in10.0 miWNW (300°)4.6 mphPartly Cloudy
6:51 AM63.0 °F19.0 °F18 %29.92 in10.0 miNorth (350°)5.8 mphPartly Cloudy
7:51 AM68.0 °F18.0 °F15 %29.94 in10.0 miWest (280°)13.8 mph18.4 mphClear
8:51 AM68.0 °F14.0 °F12 %29.96 in10.0 miNW (320°)15.0 mph19.6 mphPartly Cloudy
9:51 AM70.0 °F10.9 °F10 %29.97 in10.0 miNW (310°)10.4 mphClear
10:51 AM73.0 °F12.0 °F10 %29.96 in10.0 miWest (280°)11.5 mph19.6 mphClear
11:51 AM75.0 °F8.1 °F8 %29.95 in10.0 miWest (280°)10.4 mphClear
12:51 PM79.0 °F8.1 °F7 %29.94 in10.0 miSW (230°)9.2 mphClear
1:51 PM79.0 °F6.1 °F6 %29.93 in10.0 miWest (280°)8.1 mph25.3 mphClear
2:51 PM81.0 °F7.0 °F6 %29.91 in10.0 miSSW (210°)5.8 mph19.6 mphClear
3:51 PM82.9 °F7.0 °F6 %29.89 in10.0 miNW (310°)10.4 mph16.1 mphClear
4:51 PM82.9 °F6.1 °F5 %29.88 in10.0 miWest (260°)9.2 mphClear
5:51 PM82.0 °F3.9 °F5 %29.88 in10.0 miCalmPartly Cloudy
6:51 PM80.1 °F1.9 °F5 %29.88 in10.0 miWest (270°)12.7 mph17.3 mphPartly Cloudy
7:51 PM78.1 °F3.0 °F5 %29.89 in10.0 miWSW (250°)5.8 mphClear
8:51 PM75.0 °F5.0 °F7 %29.91 in10.0 miCalmClear
9:51 PM72.0 °F8.1 °F8 %29.94 in10.0 miNW (320°)4.6 mphClear
10:51 PM66.9 °F5.0 °F9 %29.94 in10.0 miNorth (10°)8.1 mphClear
11:51 PM62.1 °F5.0 °F10 %29.96 in10.0 miENE (70°)3.5 mphClear
Hourly data recorded from KELP, located 0.25 miles away from El Paso, Texas







STORIES FROM OUR PARTNERS